CAPE
4 0 0 0 3 29 36 0 0 0 0 0 0 0 0 0 0 0 0 0 101 447 493 583 342 215 138 53 23 17 126 133 146 274 364 383 285 486 436 307 430 686 843 955
11 2 0 0 9 21 41 13 0 0 0 0 0 0 0 0 0 0 0 0 331 472 486 628 491 319 279 259 155 50 153 213 149 166 135 0 46 10 27 58 179 302 219 112
1 1 10 7 3 19 23 18 0 0 0 0 0 0 0 0 0 0 0 0 295 451 454 654 618 424 368 414 276 215 236 277 269 156 35 0 0 0 1 11 108 66 26 0
0 5 8 9 4 13 5 7 0 0 0 0 0 0 0 0 0 0 0 0 6 269 408 492 636 482 523 411 208 209 245 216 174 133 63 18 6 0 4 6 2 10 0 0
0 21 0 15 20 9 0 1 0 0 0 0 0 0 0 0 0 0 0 0 0 41 295 378 577 550 387 374 132 33 3 67 51 14 0 7 0 0 0 0 0 1 0 0
0 7 4 0 0 5 6 8 0 0 0 0 0 0 0 0 0 0 0 0 1 70 266 364 230 182 147 74 65 22 27 51 73 80 67 7 12 2 0 1 2 4 0 0
1 0 0 0 1 4 1 0 0 0 0 0 0 0 0 0 0 0 0 0 3 213 311 257 277 235 152 122 129 59 47 26 10 6 80 56 30 0 0 0 0 3 1 0
0 0 0 0 0 0 0 0 0 0 0 0 0 0 0 0 0 0 0 0 13 131 327 416 384 235 140 119 69 75 51 6 6 0 78 34 1 0 2 2 0 1 0 0
1 0 0 0 0 0 0 0 0 0 0 0 0 0 0 0 0 0 0 0 1 128 223 315 287 219 189 182 65 46 29 31 95 138 5 0 1 1 0 0 1 0 0 0
1 0 0 0 0 0 0 0 0 0 0 0 0 0 0 0 0 0 0 12 120 336 291 278 337 369 290 107 44 59 71 71 165 113 2 1 0 2 1 4 0 0 0 0
0 8 0 0 0 0 0 0 0 0 0 0 0 0 0 0 0 0 0 0 57 317 370 440 419 282 187 55 4 41 120 79 109 66 1 0 1 3 1 0 0 0 0 0
0 2 2 0 0 0 0 0 0 0 0 0 0 0 0 0 10 0 0 0 0 0 3 125 314 138 326 278 127 80 137 52 9 1 0 0 0 1 0 0 0 0 0 0
2 4 0 0 0 0 0 0 0 0 0 0 0 0 0 9 4 6 0 0 0 0 0 41 308 292 452 701 497 80 49 0 0 0 0 2 0 0 0 0 0 0 0 0
0 0 7 0 0 0 0 0 0 0 0 0 0 0 0 0 7 5 0 0 0 0 0 120 404 575 726 686 304 17 0 0 1 2 0 0 0 0 0 0 0 0 0 0
0 1 2 19 18 0 0 0 0 0 0 0 0 0 0 20 38 15 97 0 0 12 118 324 403 505 281 46 3 5 4 3 1 0 0 0 0 0 0 0 0 0 0 0
0 0 0 3 25 0 0 0 0 0 0 0 0 0 62 6 0 0 3 108 137 268 292 373 306 165 36 7 3 4 1 0 0 0 0 0 0 0 0 0 0 0 0 0
0 3 0 2 0 0 0 0 0 0 0 0 0 0 5 0 0 0 0 0 1 16 17 63 65 14 3 3 0 1 5 0 0 0 0 0 0 0 0 0 0 0 0 0
0 0 0 7 1 0 0 0 0 0 0 0 7 19 20 0 1 0 1 0 1 2 4 1 2 2 4 5 5 0 1 4 1 0 0 0 0 0 0 0 0 0 0 0
0 0 0 1 16 1 75 118 0 0 0 0 0 18 15 0 0 0 2 1 4 5 4 4 3 3 3 3 2 1 0 0 0 0 0 0 0 0 0 0 0 0 0 0
0 0 0 10 13 11 16 18 42 97 0 121 109 82 6 0 0 0 4 0 1 2 0 0 0 0 0 0 0 0 0 0 0 0 0 0 0 0 0 0 0 0 0 0
1 3 0 0 8 5 30 48 60 3 4 294 191 45 0 0 0 0 1 3 0 0 0 0 0 0 0 0 0 0 0 0 0 0 0 0 0 0 0 0 0 0 0 0
2 1 0 0 0 2 16 23 83 33 28 116 120 0 0 0 2 0 5 1 0 0 0 0 0 0 0 0 0 0 0 0 0 0 0 0 0 0 0 0 0 0 0 0
7 12 12 0 1 1 0 1 19 12 48 112 10 0 0 0 1 1 2 0 0 0 0 0 0 0 0 0 0 0 1 0 0 0 0 0 0 0 0 0 0 0 0 0
0 0 1 3 0 0 0 0 1 0 19 5 0 0 0 0 3 2 0 0 0 0 0 0 0 0 0 0 0 0 0 0 0 0 0 0 0 0 0 0 0 0 0 0
0 0 0 9 9 0 0 0 0 0 0 0 0 0 0 0 1 0 0 0 0 1 0 0 0 0 0 0 0 0 0 0 0 0 0 0 0 0 0 0 0 0 0 0
4 1 1 0 0 0 0 0 0 0 0 0 0 0 0 0 0 0 0 0 0 0 0 0 0 0 0 0 0 0 0 0 0 0 0 0 0 0 0 0 0 0 0 0
CIN
-7 -0 -0 -0 -0 -10 -12 -0 -0 -0 -0 -0 -0 -0 -0 -0 -0 -0 -0 -0 -280 -265 -361 -347 -383 -424 -446 -494 -533 -527 -462 -448 -396 -317 -251 -219 -218 -70 -51 -103 -98 -78 -37 -53
-5 -1 -0 -0 -6 -21 -13 -8 -0 -0 -0 -0 -0 -0 -0 -0 -0 -0 -0 -0 -244 -267 -308 -305 -340 -394 -383 -382 -416 -492 -415 -375 -347 -327 -348 -120 -321 -344 -269 -170 -176 -123 -120 -176
-3 -1 -16 -10 -7 -10 -21 -25 -0 -0 -0 -0 -0 -0 -0 -0 -0 -0 -0 -0 -271 -247 -278 -284 -321 -354 -382 -381 -379 -378 -370 -336 -357 -366 -355 -0 -0 -23 -139 -168 -123 -114 -142 -0
-1 -12 -12 -7 -7 -15 -35 -53 -0 -0 -0 -0 -0 -0 -0 -0 -0 -0 -0 -0 -82 -315 -275 -295 -302 -349 -343 -356 -370 -362 -386 -422 -459 -463 -417 -476 -311 -0 -259 -138 -0 -137 -0 -0
-0 -32 -0 -8 -12 -14 -0 -49 -0 -0 -0 -0 -0 -0 -0 -0 -0 -0 -0 -0 -0 -455 -319 -324 -302 -314 -355 -312 -428 -515 -538 -519 -559 -467 -31 -387 -51 -0 -0 -8 -0 -0 -0 -0
-0 -15 -13 -0 -3 -13 -7 -26 -0 -0 -0 -0 -0 -0 -0 -0 -0 -0 -0 -0 -91 -433 -394 -360 -411 -401 -378 -505 -492 -586 -528 -468 -460 -460 -417 -136 -378 -133 -0 -0 -0 -0 -0 -0
-5 -0 -0 -0 -3 -14 -8 -7 -0 -0 -0 -0 -0 -0 -0 -0 -0 -0 -0 -0 -261 -334 -338 -345 -326 -350 -422 -469 -484 -536 -501 -461 -501 -512 -434 -405 -420 -0 -0 -0 -0 -0 -0 -0
-0 -0 -0 -0 -0 -2 -0 -0 -0 -0 -0 -0 -0 -0 -0 -0 -0 -0 -0 -0 -225 -313 -299 -286 -362 -440 -458 -500 -521 -493 -508 -253 -379 -0 -351 -353 -0 -0 -0 -0 -0 -0 -0 -0
-12 -0 -0 -0 -0 -0 -0 -0 -0 -0 -0 -0 -0 -0 -0 -0 -0 -0 -0 -0 -43 -264 -301 -339 -453 -435 -431 -478 -546 -517 -490 -484 -360 -201 -185 -0 -0 -0 -0 -0 -0 -0 -0 -0
-22 -21 -0 -0 -0 -0 -0 -0 -0 -0 -0 -0 -0 -0 -0 -0 -0 -0 -0 -383 -246 -219 -311 -418 -429 -393 -441 -510 -547 -507 -450 -397 -244 -217 -0 -0 -0 -0 -0 -0 -0 -0 -0 -0
-0 -68 -0 -0 -0 -0 -0 -0 -0 -0 -0 -0 -0 -0 -0 -0 -0 -0 -0 -0 -208 -170 -182 -307 -376 -411 -430 -510 -286 -453 -316 -314 -225 -269 -0 -0 -0 -0 -0 -0 -0 -0 -0 -0
-0 -68 -18 -0 -0 -0 -0 -0 -0 -0 -0 -0 -0 -0 -0 -4 -364 -0 -0 -0 -0 -0 -58 -353 -364 -367 -320 -312 -367 -350 -237 -241 -351 -0 -0 -0 -0 -0 -0 -0 -0 -0 -0 -0
-32 -37 -0 -0 -0 -0 -0 -0 -0 -0 -0 -0 -0 -0 -0 -358 -419 -546 -0 -0 -0 -0 -0 -473 -331 -310 -272 -168 -199 -301 -277 -0 -0 -0 -0 -0 -0 -0 -0 -0 -0 -0 -0 -0
-8 -14 -30 -0 -0 -0 -0 -0 -0 -0 -0 -0 -0 -0 -0 -42 -396 -465 -240 -0 -0 -0 -0 -428 -290 -254 -229 -166 -209 -309 -0 -0 -0 -0 -0 -0 -0 -0 -0 -0 -0 -0 -0 -0
-0 -12 -7 -34 -37 -0 -0 -0 -0 -0 -0 -0 -0 -0 -0 -327 -368 -460 -440 -0 -0 -402 -415 -314 -274 -229 -290 -343 -0 -0 -0 -0 -0 -0 -0 -0 -0 -0 -0 -0 -0 -0 -0 -0
-0 -0 -0 -26 -34 -0 -0 -0 -0 -0 -0 -0 -0 -0 -227 -218 -0 -0 -417 -285 -297 -309 -308 -330 -299 -304 -338 -372 -0 -0 -0 -0 -0 -0 -0 -0 -0 -0 -0 -0 -0 -0 -0 -0
-0 -44 -9 -12 -0 -0 -0 -0 -0 -0 -0 -0 -0 -0 -272 -0 -0 -0 -0 -0 -0 -295 -326 -275 -257 -331 -0 -0 -0 -0 -0 -0 -0 -0 -0 -0 -0 -0 -0 -0 -0 -0 -0 -0
-0 -0 -0 -8 -26 -0 -0 -0 -0 -0 -0 -0 -219 -213 -293 -0 -0 -0 -0 -0 -0 -0 -0 -0 -0 -0 -0 -0 -0 -0 -0 -0 -0 -0 -0 -0 -0 -0 -0 -0 -0 -0 -0 -0
-0 -0 -0 -40 -37 -50 -61 -80 -0 -0 -0 -0 -0 -282 -304 -0 -0 -0 -0 -0 -0 -0 -0 -0 -0 -0 -0 -0 -0 -0 -0 -0 -0 -0 -0 -0 -0 -0 -0 -0 -0 -0 -0 -0
-0 -0 -0 -45 -41 -7 -119 -169 -199 -155 -0 -251 -250 -269 -289 -0 -0 -0 -0 -0 -0 -0 -0 -0 -0 -0 -0 -0 -0 -0 -0 -0 -0 -0 -0 -0 -0 -0 -0 -0 -0 -0 -0 -0
-0 -26 -0 -10 -33 -14 -174 -190 -215 -27 -39 -197 -287 -266 -0 -0 -0 -0 -0 -0 -0 -0 -0 -0 -0 -0 -0 -0 -0 -0 -0 -0 -0 -0 -0 -0 -0 -0 -0 -0 -0 -0 -0 -0
-4 -2 -0 -0 -0 -7 -178 -159 -81 -169 -312 -298 -215 -35 -0 -0 -0 -0 -0 -0 -0 -0 -0 -0 -0 -0 -0 -0 -0 -0 -0 -0 -0 -0 -0 -0 -0 -0 -0 -0 -0 -0 -0 -0
-13 -2 -8 -0 -14 -51 -13 -2 -222 -323 -315 -286 -325 -0 -0 -0 -0 -0 -0 -0 -0 -0 -0 -0 -0 -0 -0 -0 -0 -0 -0 -0 -0 -0 -0 -0 -0 -0 -0 -0 -0 -0 -0 -0
-0 -0 -0 -0 -1 -0 -0 -0 -116 -0 -294 -276 -0 -0 -0 -0 -0 -0 -0 -0 -0 -0 -0 -0 -0 -0 -0 -0 -0 -0 -0 -0 -0 -0 -0 -0 -0 -0 -0 -0 -0 -0 -0 -0
-0 -0 -0 -4 -2 -0 -0 -0 -0 -0 -0 -0 -0 -0 -0 -0 -0 -0 -0 -0 -0 -0 -0 -0 -0 -0 -0 -0 -0 -0 -0 -0 -0 -0 -0 -0 -0 -0 -0 -0 -0 -0 -0 -0
-0 -0 -0 -0 -0 -0 -0 -0 -0 -0 -0 -0 -0 -0 -0 -0 -0 -0 -0 -0 -0 -0 -0 -0 -0 -0 -0 -0 -0 -0 -0 -0 -0 -0 -0 -0 -0 -0 -0 -0 -0 -0 -0 -0
Wind_Speed
19 27 34 37 38 34 28 35 36 44 32 37 41 45 37 27 36 36 35 28 25 25 23 19 15 13 10 9 10 11 8 8 8 12 15 18 21 24 25 28 29 26 25 18
24 31 31 28 35 39 32 30 37 29 33 31 36 39 49 33 32 33 31 28 24 24 23 20 17 14 11 10 10 10 9 8 6 9 11 17 19 21 24 26 22 19 18 16
23 25 28 31 34 38 35 33 30 31 28 30 28 34 37 34 29 32 33 26 24 21 22 22 19 17 15 11 11 11 11 9 9 9 10 14 16 24 29 23 29 25 18 13
22 24 22 29 33 35 36 29 28 29 30 35 31 39 36 37 32 32 33 31 24 22 22 20 19 19 16 14 11 12 12 12 13 16 15 15 14 22 11 16 21 16 22 16
19 19 24 29 30 32 33 26 25 27 28 29 31 32 36 32 37 36 34 32 28 22 20 19 18 16 15 15 15 15 15 17 17 16 15 12 13 15 15 13 5 3 10 7
23 20 18 22 22 24 24 25 23 21 24 35 31 29 34 36 39 35 33 30 28 24 21 20 19 17 17 18 19 18 16 16 15 15 15 14 15 16 12 9 8 7 9 15
18 20 19 15 21 23 23 24 27 29 31 35 29 30 29 32 30 31 32 30 27 24 22 19 17 17 17 16 12 11 12 13 14 13 12 10 9 8 8 4 6 9 10 15
16 18 19 19 23 23 25 26 26 32 33 29 26 33 29 26 25 26 29 28 22 22 21 18 17 15 15 14 11 12 13 14 14 13 11 8 5 1 5 10 5 11 6 8
13 16 16 19 21 19 24 27 19 20 22 27 29 27 26 20 20 21 24 27 25 20 17 16 17 15 13 13 12 10 9 8 8 8 6 0 6 10 10 10 8 4 5 6
13 12 11 16 19 20 22 21 24 22 28 30 28 29 26 25 23 21 21 25 24 22 19 16 15 14 14 13 10 8 7 5 2 3 4 10 10 8 8 8 6 2 2 4
15 14 14 14 23 24 21 24 20 19 21 27 28 27 22 24 26 29 28 25 22 21 19 16 14 14 14 13 9 8 4 1 2 3 6 7 6 4 6 6 5 2 3 5
16 15 15 17 17 19 21 21 21 24 24 20 22 24 16 19 23 27 31 34 31 25 21 18 16 14 12 9 6 4 1 1 3 3 3 2 5 6 6 5 3 1 4 6
15 16 16 15 15 17 19 20 20 17 20 24 25 24 17 20 23 25 30 32 31 27 22 17 15 14 11 8 5 3 0 2 2 2 3 4 5 3 2 4 1 4 6 9
11 0 16 22 23 21 20 18 18 19 23 24 27 27 27 25 25 27 27 28 25 23 19 16 15 13 10 9 6 3 3 3 4 5 5 5 3 2 2 2 4 6 9 12
15 17 18 19 22 24 20 21 21 24 22 24 24 24 24 23 23 24 25 20 16 17 16 14 13 11 9 7 5 4 8 10 8 8 6 3 2 1 3 5 6 10 13 15
16 15 16 16 19 25 24 24 26 23 21 22 21 23 17 17 19 20 20 15 12 13 14 12 11 10 9 7 6 6 8 10 10 6 4 2 2 2 5 7 10 12 15 17
19 17 17 14 16 9 26 28 22 21 20 20 24 22 15 17 16 15 14 10 9 9 9 8 8 8 6 10 8 9 11 5 3 1 3 4 5 6 8 10 12 14 16 18
23 20 18 19 14 18 23 26 31 28 24 23 18 16 15 14 12 11 10 9 8 8 10 8 6 3 4 5 5 2 6 4 7 4 8 7 8 9 11 13 14 16 18 21
22 20 19 20 20 19 16 17 22 25 31 28 19 17 15 7 6 10 8 5 7 9 9 6 5 1 2 2 3 4 6 10 11 10 8 8 10 10 12 15 17 18 21 22
24 22 19 19 18 18 15 16 18 17 27 9 4 9 3 3 19 15 9 6 7 5 4 2 4 5 5 4 5 6 8 10 11 10 10 11 11 12 14 17 19 21 22 23
17 19 20 20 19 16 16 20 18 22 19 13 7 11 3 13 14 4 7 4 6 5 1 3 5 5 7 5 6 8 7 8 9 9 10 11 13 14 16 18 21 21 23 24
15 20 20 16 18 20 17 16 17 19 21 13 5 2 3 6 8 7 3 9 9 2 2 2 3 7 7 7 8 8 8 9 9 12 12 13 14 16 18 18 19 21 23 24
14 16 18 20 18 17 16 18 23 23 23 11 4 4 9 15 8 14 8 5 6 2 3 1 5 7 8 8 9 8 9 9 8 11 14 14 15 16 18 18 20 22 23 24
20 16 17 16 17 19 21 19 19 20 21 4 10 13 13 15 10 12 15 4 3 1 5 5 6 7 8 9 12 12 15 10 8 10 12 12 14 16 18 19 20 22 25 26
24 23 21 19 16 16 17 17 17 14 7 3 8 13 14 13 11 12 11 8 5 6 5 7 9 11 11 12 14 15 15 14 12 12 12 13 15 16 17 19 21 23 25 27
20 18 20 20 19 19 19 18 15 11 5 5 9 6 5 8 11 15 13 10 8 9 8 9 9 11 12 13 13 14 14 14 14 14 14 15 15 17 18 19 20 23 26 27
Wind_Direction
245 242 234 233 229 232 240 232 233 233 240 231 235 233 237 244 237 234 237 242 241 234 235 237 237 235 234 233 231 232 234 243 260 280 282 288 292 290 291 284 279 279 276 282
248 240 238 238 229 231 236 236 231 236 234 233 235 235 232 244 240 234 236 238 238 232 230 232 233 233 234 229 217 223 228 238 245 272 285 288 292 295 299 298 294 285 280 285
246 246 240 233 227 228 232 232 232 232 235 236 234 235 232 237 240 236 237 239 235 224 220 228 228 232 248 236 224 222 228 224 230 260 277 284 284 297 287 306 288 283 277 286
246 237 244 231 228 227 227 235 237 237 233 227 233 232 232 232 235 235 234 236 232 228 227 226 225 232 239 241 247 249 245 251 271 275 274 276 280 283 285 295 291 269 262 260
233 234 249 232 230 225 227 237 238 237 235 231 231 236 232 232 233 233 233 236 238 233 225 221 218 228 241 245 261 270 273 274 280 285 286 292 290 290 303 314 237 179 271 292
230 232 237 230 232 224 229 235 237 239 236 228 229 236 234 229 231 232 234 236 239 240 238 238 243 248 252 262 268 276 280 283 281 279 285 285 286 284 292 275 267 273 272 273
248 248 253 247 226 227 229 226 224 228 228 228 232 235 241 234 239 234 233 236 239 241 241 240 240 247 255 260 265 275 284 289 296 301 301 294 293 276 284 225 207 269 281 272
258 252 251 242 228 224 226 225 230 227 225 228 230 235 238 244 242 236 235 235 238 240 245 244 248 248 257 267 273 279 286 293 297 295 304 300 293 262 144 140 227 266 282 285
268 270 255 236 227 229 226 227 246 236 234 230 233 241 244 245 239 238 234 233 237 237 239 243 250 254 262 276 280 282 288 301 309 304 306 272 137 139 134 129 136 247 295 320
258 265 268 240 234 235 234 234 236 240 229 231 236 235 239 238 239 239 238 237 240 244 247 249 254 262 274 284 287 293 304 309 356 341 118 123 125 137 132 133 140 247 333 350
237 276 257 252 236 227 235 232 244 244 244 236 234 238 245 249 247 246 245 245 246 248 253 250 253 263 277 285 290 298 303 356 65 111 131 135 136 142 151 123 116 93 349 56
156 271 254 247 241 234 240 237 242 239 240 246 244 243 254 266 264 257 253 249 250 253 259 259 253 258 265 276 281 282 239 203 114 159 217 200 175 145 132 116 91 332 335 31
99 270 258 252 248 244 238 244 248 251 251 246 245 246 260 282 277 272 263 257 253 254 260 258 252 249 246 245 257 282 295 128 115 211 194 157 194 171 125 89 329 343 44 349
248 226 277 247 244 241 244 246 248 251 249 250 252 257 263 279 279 277 272 264 257 253 254 252 247 244 243 246 249 258 296 282 249 234 219 206 198 131 75 353 5 358 352 342
284 229 269 255 259 246 248 250 249 247 255 255 261 259 269 279 282 285 277 272 262 250 245 235 235 237 235 244 253 283 291 283 253 229 213 201 134 69 47 26 2 344 340 341
285 251 274 243 253 247 249 248 244 252 261 262 265 265 278 292 293 297 285 272 261 247 240 227 226 221 222 223 247 273 284 290 274 234 187 121 56 343 338 350 358 346 339 344
259 269 280 289 273 294 238 232 246 254 259 262 260 268 283 296 294 294 286 275 265 243 235 223 216 226 226 237 219 275 306 246 200 351 301 9 339 346 335 343 356 350 345 346
247 272 280 259 294 237 241 241 221 226 245 253 268 269 272 280 292 281 280 267 253 242 233 220 225 211 263 248 248 39 125 359 42 48 55 5 358 359 347 352 355 345 347 346
178 265 275 260 248 233 242 247 242 242 226 225 253 260 264 290 309 270 305 321 262 251 254 245 245 268 34 45 51 78 27 35 44 50 24 10 37 11 356 355 354 351 350 350
167 194 283 246 254 248 256 269 269 258 234 133 103 107 94 306 250 258 311 304 254 256 247 61 53 59 61 37 54 52 48 55 54 38 32 22 7 355 349 350 350 351 353 351
243 241 230 226 238 267 273 266 259 237 254 278 128 122 78 284 293 349 334 263 208 207 208 48 51 52 38 26 39 41 36 29 25 24 20 10 360 1 356 351 346 352 351 348
255 231 237 279 257 242 280 258 254 255 252 261 169 256 9 19 57 67 58 185 195 131 33 317 46 45 36 36 43 28 18 15 19 17 28 10 7 1 4 3 356 356 355 354
266 272 244 224 239 271 280 271 249 236 219 274 196 187 103 86 74 87 107 164 190 122 58 9 42 39 13 358 12 15 359 333 3 10 10 20 8 7 13 10 5 1 359 358
266 270 245 249 237 252 240 283 277 254 226 66 118 122 114 104 94 103 103 135 102 209 58 49 45 32 12 3 22 29 47 15 335 352 10 15 19 11 8 9 8 3 1 2
256 259 250 252 254 248 255 281 270 287 313 101 116 114 114 105 102 109 103 98 92 81 67 59 55 47 38 34 39 42 48 44 32 29 21 19 14 14 14 10 12 12 11 9
262 264 257 242 270 257 249 266 281 276 305 122 125 126 120 114 112 109 104 101 95 88 75 62 47 43 40 39 38 34 34 38 36 28 22 21 19 20 24 23 19 15 12 10